Caribou, ME

8:44 PM EDT on August 18, 2017 (GMT -0400)
Caribou Municipal

Weather History for KCAR - August, 2013

Change the Weather History Date:

Saturday, August 31, 2013

  Actual Average Record
Temperature  
Mean Temperature 66 °F 60 °F  
Max Temperature 74 °F 71 °F 93 °F (2010)
Min Temperature 58 °F 50 °F 34 °F (1965)
Degree Days  
Heating Degree Days 0 6  
Month to date heating degree days 86 96  
Since 1 June heating degree days 292 319  
Since 1 July heating degree days 114 154  
Cooling Degree Days 1 1  
Month to date cooling degree days 29 53  
Year to date cooling degree days 179 169  
Since 1 June cooling degree days 171 164  
Growing Degree Days 15 (Base 50)    
Moisture  
Dew Point 60 °F    
Average Humidity 81    
Maximum Humidity 100    
Minimum Humidity 61    
Precipitation  
Precipitation 0.10 in 0.11 in 1.55 in (2005)
Month to date precipitation 5.67 3.76  
Year to date precipitation 33.02 24.74  
Snow  
Snow 0.00 in 0.00 in 0.00 in (2002)
Month to date snowfall 0.0 0.0  
Since 1 June snowfall 0.0 0.0  
Since 1 July snowfall 0.0 0.0  
Snow Depth 0.00 in    
Sea Level Pressure  
Sea Level Pressure 29.81 in    
Wind  
Wind Speed 3 mph (SSE)    
Max Wind Speed 12 mph    
Max Gust Speed 15 mph    
Visibility 6 miles    
Events Fog , Rain    
T = Trace of Precipitation, MM = Missing Value Source: NWS Daily Summary

Daily Weather History Graph

Daily Weather History Graph

Search for Another Location

Airport or City:

Trip Planner

Search our weather history database for the weather conditions in past years. The results will help you decide how hot, cold, wet, or windy it might be!

Date:

Astronomy

Aug. 31, 2013 Rise Set
Actual Time 5:50 AM EDT 7:13 PM EDT
Civil Twilight 5:19 AM EDT 7:44 PM EDT
Nautical Twilight 4:40 AM EDT 8:22 PM EDT
Astronomical Twilight 3:59 AM EDT 9:03 PM EDT
Moon 1:05 AM EDT (8/31) 4:18 PM EDT (8/31)
Length of Visible Light 14h 25m
Length of Day
13h 22m
Waning Crescent, 21% of the Moon is Illuminated
Aug 31
Waning Crescent
Sep 5
New
Sep 12
First Quarter
Sep 19
Full
Sep 26
Last Quarter

Hourly Weather History & Observations

Time (EDT) Temp. Dew Point Humidity Pressure Visibility Wind Dir Wind Speed Gust Speed Precip Events Conditions
12:54 AM 60.1 °F 59.0 °F 96% 29.77 in 10.0 mi Calm Calm - 0.00 in   Overcast
1:54 AM 61.0 °F 59.0 °F 93% 29.77 in 10.0 mi Calm Calm - 0.01 in Rain Light Rain
2:54 AM 59.0 °F 59.0 °F 100% 29.77 in 7.0 mi Calm Calm - 0.02 in Rain Light Rain
3:45 AM 59.0 °F 59.0 °F 100% 29.75 in 1.8 mi Calm Calm - 0.01 in Rain Light Rain
3:54 AM 59.0 °F 59.0 °F 100% 29.76 in 1.0 mi Calm Calm - 0.01 in   Overcast
4:04 AM 59.0 °F 59.0 °F 100% 29.75 in 2.0 mi Calm Calm - N/A   Overcast
4:14 AM 60.8 °F 59.0 °F 94% 29.76 in 1.2 mi Calm Calm - 0.00 in Rain Light Rain
4:25 AM 59.0 °F 57.2 °F 94% 29.76 in 0.8 mi South 3.5 mph - 0.00 in Rain Light Rain
4:36 AM 59.0 °F 57.2 °F 94% 29.77 in 0.8 mi Calm Calm - 0.00 in   Overcast
4:49 AM 59.0 °F 59.0 °F 100% 29.77 in 0.5 mi Calm Calm - 0.00 in Fog Fog
4:54 AM 59.0 °F 57.9 °F 96% 29.78 in 0.8 mi North 3.5 mph - 0.00 in   Overcast
5:08 AM 59.0 °F 57.2 °F 94% 29.78 in 0.8 mi Calm Calm - N/A   Overcast
5:18 AM 59.0 °F 59.0 °F 100% 29.78 in 1.2 mi Calm Calm - N/A   Overcast
5:24 AM 59.0 °F 59.0 °F 100% 29.78 in 2.0 mi Calm Calm - N/A   Overcast
5:31 AM 59.0 °F 57.2 °F 94% 29.78 in 1.8 mi Calm Calm - N/A   Overcast
5:35 AM 59.0 °F 57.2 °F 94% 29.78 in 1.0 mi Calm Calm - N/A   Overcast
5:42 AM 59.0 °F 57.2 °F 94% 29.78 in 0.2 mi Calm Calm - N/A Fog Fog
5:49 AM 57.2 °F 57.2 °F 100% 29.78 in 0.2 mi Calm Calm - N/A Fog Fog
5:54 AM 57.9 °F 57.0 °F 97% 29.80 in 0.2 mi Calm Calm - N/A Fog Fog
6:23 AM 57.2 °F 57.2 °F 100% 29.81 in 0.2 mi Calm Calm - N/A Fog Fog
6:30 AM 57.2 °F 57.2 °F 100% 29.81 in 0.2 mi Calm Calm - N/A Fog Fog
6:54 AM 59.0 °F 59.0 °F 100% 29.83 in 0.5 mi Calm Calm - N/A Fog Fog
6:58 AM 60.8 °F 59.0 °F 94% 29.82 in 1.8 mi Calm Calm - N/A   Overcast
7:00 AM 60.8 °F 59.0 °F 94% 29.82 in 3.0 mi Calm Calm - N/A   Overcast
7:08 AM 60.8 °F 60.8 °F 100% 29.82 in 1.8 mi Calm Calm - N/A   Overcast
7:11 AM 60.8 °F 60.8 °F 100% 29.82 in 0.8 mi Calm Calm - N/A   Overcast
7:52 AM 60.8 °F 60.8 °F 100% 29.83 in 2.0 mi Calm Calm - N/A   Overcast
7:54 AM 61.0 °F 61.0 °F 100% 29.84 in 5.0 mi Calm Calm - N/A   Overcast
8:45 AM 64.4 °F 60.8 °F 88% 29.83 in 10.0 mi SSW 3.5 mph - N/A   Mostly Cloudy
8:54 AM 66.0 °F 60.1 °F 81% 29.84 in 10.0 mi Calm Calm - N/A   Scattered Clouds
9:08 AM 66.2 °F 60.8 °F 83% 29.83 in 10.0 mi Calm Calm - N/A   Mostly Cloudy
9:41 AM 66.2 °F 60.8 °F 83% 29.84 in 10.0 mi SE 4.6 mph - N/A   Scattered Clouds
9:54 AM 66.0 °F 60.1 °F 81% 29.85 in 10.0 mi SSW 3.5 mph - N/A   Clear
10:30 AM 68.0 °F 60.8 °F 78% 29.84 in 10.0 mi South 6.9 mph - N/A   Mostly Cloudy
10:54 AM 69.1 °F 61.0 °F 75% 29.85 in 10.0 mi SW 5.8 mph - N/A   Scattered Clouds
11:04 AM 68.0 °F 60.8 °F 78% 29.84 in 10.0 mi SW 4.6 mph - N/A   Mostly Cloudy
11:37 AM 69.8 °F 59.0 °F 68% 29.83 in 10.0 mi Variable 4.6 mph - N/A   Scattered Clouds
11:54 AM 71.1 °F 60.1 °F 68% 29.83 in 10.0 mi Variable 5.8 mph - N/A   Partly Cloudy
12:54 PM 73.0 °F 60.1 °F 64% 29.82 in 10.0 mi Calm Calm - N/A   Overcast
1:54 PM 72.0 °F 57.9 °F 61% 29.82 in 10.0 mi South 4.6 mph - N/A   Overcast
2:54 PM 73.0 °F 60.1 °F 64% 29.82 in 10.0 mi SSE 4.6 mph - N/A   Overcast
3:54 PM 72.0 °F 61.0 °F 68% 29.82 in 10.0 mi South 5.8 mph - N/A   Overcast
4:54 PM 71.1 °F 62.1 °F 73% 29.82 in 10.0 mi South 4.6 mph - N/A   Overcast
5:54 PM 70.0 °F 62.1 °F 76% 29.83 in 10.0 mi South 5.8 mph - N/A   Overcast
6:54 PM 66.0 °F 63.0 °F 90% 29.83 in 8.0 mi South 4.6 mph - 0.00 in Rain Light Rain
7:54 PM 66.0 °F 63.0 °F 90% 29.84 in 10.0 mi SSE 5.8 mph - 0.00 in   Overcast
8:39 PM 66.2 °F 64.4 °F 94% 29.82 in 10.0 mi East 4.6 mph - 0.00 in Rain Light Rain
8:54 PM 66.9 °F 63.0 °F 87% 29.83 in 10.0 mi East 3.5 mph - 0.00 in   Overcast
9:54 PM 66.0 °F 63.0 °F 90% 29.83 in 10.0 mi North 3.5 mph - N/A   Overcast
10:07 PM 66.2 °F 62.6 °F 88% 29.82 in 10.0 mi North 3.5 mph - N/A   Overcast
10:52 PM 66.2 °F 64.4 °F 94% 29.81 in 3.0 mi NNE 3.5 mph - 0.02 in Rain Light Rain
10:54 PM 66.0 °F 64.0 °F 93% 29.82 in 3.0 mi North 3.5 mph - 0.02 in Rain Light Rain
11:54 PM 64.9 °F 63.0 °F 93% 29.81 in 8.0 mi NNE 3.5 mph - 0.04 in Rain Light Rain